Regional Weather Roundup
Issued by NWS Jackson, KY

Home | Current Version | Previous Version | Graphics & Text | Print | Product List | Glossary Off
Versions: 1 2 3 4 5 6 7 8 9 10 11 12 13 14 15 16 17 18 19 20 21 22 23 24 25 26 27

000
ASUS43 KJKL 251810
RWRJKL

EAST KENTUCKY HOURLY WEATHER ROUNDUP
NATIONAL WEATHER SERVICE JACKSON KY
200 PM EDT THU AUG 25 2016

NOTE: "FAIR" INDICATES FEW OR NO CLOUDS BELOW 12,000 FEET WITH
NO SIGNIFICANT WEATHER AND/OR OBSTRUCTIONS TO VISIBILITY.

* THESE REPORTS ARE NOT UNDER NWS QUALITY CONTROL AND MAY NOT
  REPORT WEATHER SUCH AS PRECIPITATION AND FOG.

KYZ079-080-083-085-087-088-110-112-115-119-120-251900
...EASTERN KENTUCKY...

CITY           SKY/WX    TMP DP  RH WIND       PRES   REMARKS
JACKSON        MOSUNNY   89  75  63 CALM      30.17F HX  99
6HR MIN TEMP:  73; 6HR MAX TEMP:  89;

LONDON         PTSUNNY   88  71  57 W9        30.17F HX  94
SOMERSET*      MOSUNNY   86  72  62 W9        30.17S HX  92
MONTICELLO*    CLOUDY   N/A N/A N/A W9G18     30.17F
WILLIAMSBURG*  PTCLDY    86  75  70 CALM      30.17F HX  95
MIDDLESBORO*   CLOUDY    86  74  66 SW10      30.18S HX  94
6HR MIN TEMP:  67; 6HR MAX TEMP:  88;

HARLAN APT*    CLOUDY    86  68  54 CALM      30.19F
PIKE CO APT*   PTSUNNY   84  73  70 W7        30.18S HX  90
BIG SANDY APT* MOCLDY    88  73  62 SW9       30.16S HX  96
6HR MIN TEMP:  74; 6HR MAX TEMP:  88;

MOREHEAD APT*  PTCLDY    88  72  58 SW10      30.14F HX  94
ASHLAND*       CLOUDY    90  75  62 SW6       30.08F HX 100
$$

KYZ035-036-041-042-044-050-067-078-099-251900
...CENTRAL KENTUCKY...

CITY           SKY/WX    TMP DP  RH WIND       PRES   REMARKS
MT STERLING*   MOSUNNY  N/A N/A N/A W10       30.15S
FLEMING/MASON* MOSUNNY   90  72  55 W10G16    30.12S HX  96
DANVILLE*      PTSUNNY   90  72  55 W12       30.15F HX  96
LEXINGTON      MOSUNNY   89  70  53 SW13G20   30.13F HX  94
6HR MIN TEMP:  74; 6HR MAX TEMP:  90;

FRANKFORT      MOSUNNY   90  72  55 SW9G18    30.11S HX  97
6HR MIN TEMP:  76; 6HR MAX TEMP:  90;

LOUISVILLE     MOSUNNY   91  71  51 SW13      30.09F HX  97
6HR MIN TEMP:  79; 6HR MAX TEMP:  92;

LEBANON*         N/A     90  73  58 SW10      30.14S HX  98
GLASGOW*       CLOUDY    89  73  58 W5        30.13F HX  97
BOWLING GREEN  PTSUNNY   91  73  55 W7G17     30.12F HX  99
6HR MIN TEMP:  76; 6HR MAX TEMP:  92;

$$

KYZ091>093-OHZ055-061-077-WVZ005-015-034-035-042-251900
...SOUTHERN OHIO/WEST VIRGINIA...

CITY           SKY/WX    TMP DP  RH WIND       PRES   REMARKS
COVINGTON      MOSUNNY   87  75  67 SW8       30.09F HX  96
COLUMBUS       PTSUNNY   84  75  74 SW9       30.06F HX  92
DAYTON         MOSUNNY   87  75  67 SW14      30.08S HX  96
WILMINGTON     PTSUNNY   85  75  72 SW14      30.09F HX  93
HUNTINGTON     MOSUNNY   87  72  60 SW10      30.11F HX  93
CHARLESTON     CLOUDY    86  73  65 SW8       30.12F HX  93
PINEVILLE*     CLOUDY    86  69  56 MISG      30.24F HX  90
BECKLEY        CLOUDY    79  69  71 W9        30.24S
BLUEFIELD      CLOUDY    77  69  76 NW7       30.26F
LOGAN CO APT*    N/A     84  73  70 VRB5      30.17S HX  91
$$

VAZ002-007-008-TNZ017-027-036-066-071-251900
...SOUTHWEST VIRGINIA/EAST TENNESSEE...

CITY           SKY/WX    TMP DP  RH WIND       PRES   REMARKS
WISE*          PTSUNNY   82  61  47 SW8       30.27F
JONESVILLE*      N/A     88  72  58 W3        30.21F HX  94
ABINGDON*      CLOUDY    83  72  71 W8        30.24F
BRISTOL        MOSUNNY   86  71  60 VRB3      30.20F HX  91
MORRISTOWN*    MOCLDY    88  72  58 VRB3      30.19F HX  94
KNOXVILLE      MOSUNNY   89  70  53 SW5       30.16F HX  94
OAK RIDGE      PTSUNNY   88  71  57 VRB5      30.18F HX  94
CROSSVILLE     MOSUNNY   86  69  56 SW8       30.22F HX  90
NASHVILLE      PTSUNNY   93  72  50 W5        30.13F HX 101
$$

...KEY TO REMARKS...
VSB - VISIBILITY IN MILES
WCI - WIND CHILL INDEX
HX  - HEAT INDEX

$$




USA.gov is the U.S. government's official web portal to all federal, state and local government web resources and services.